Overview Statistics Trail Chart Weather Telemetry Raw packets
 

This is the latest recevied weather packets stored in our database for station/object K2CAT. If no packets are shown the sender has not sent any weather packets the latest 10 day(s).

<< 58 59 60 61 62 63 64 >>
Time Temp. Humidity Pressure Rain* Wind** Luminosity Snow
1777326772 23.89° C 28% 1021.7 hPa 0 mm - 174 W/m² -
1777326469 24.44° C 28% 1021.7 hPa 0 mm - 188 W/m² -
1777326168 24.44° C 29% 1021.6 hPa 0 mm - 198 W/m² -
1777325865 24.44° C 30% 1021.7 hPa 0 mm - 215 W/m² -
1777325563 24.44° C 34% 1021.7 hPa 0 mm - 228 W/m² -
1777325261 24.44° C 28% 1021.8 hPa 0 mm - 244 W/m² -
1777324957 24.44° C 28% 1021.7 hPa 0 mm - 258 W/m² -
1777324654 24.44° C 29% 1021.8 hPa 0 mm - 271 W/m² -
1777324352 24.44° C 28% 1021.8 hPa 0 mm - 286 W/m² -
1777324049 25° C 27% 1021.9 hPa 0 mm - 302 W/m² -
1777323747 24.44° C 29% 1021.8 hPa 0 mm - 252 W/m² -
1777323444 23.89° C 28% 1022 hPa 0 mm - 328 W/m² -
1777323141 24.44° C 30% 1021.8 hPa 0 mm - 343 W/m² -
1777322839 25° C 29% 1021.8 hPa 0 mm - 262 W/m² -
1777322537 25° C 28% 1021.9 hPa 0 mm - 371 W/m² -
1777322234 25° C 28% 1021.7 hPa 0 mm - 385 W/m² -
1777321931 24.44° C 30% 1021.7 hPa 0 mm - 396 W/m² -
1777321628 24.44° C 29% 1021.7 hPa 0 mm - 412 W/m² -
1777321324 24.44° C 37% 1022 hPa 0 mm - 422 W/m² -
1777321021 24.44° C 34% 1021.6 hPa 0 mm - 437 W/m² -
1777320719 24.44° C 30% 1021.8 hPa 0 mm - 452 W/m² -
1777320416 25° C 28% 1021.8 hPa 0 mm - 462 W/m² -
1777320113 25° C 29% 1021.6 hPa 0 mm - 474 W/m² -
1777319810 24.44° C 30% 1022 hPa 0 mm - 484 W/m² -
1777319507 23.89° C 31% 1021.7 hPa 0 mm - 494 W/m² -

* Rain latest hour (hover to see other rain measurements)
** Current wind speed in m/s (hover to see current wind gust speed)